Location: Newark
(3.0500°N, 36.0167°E)
Time: 13:02:51
(UTC+00:00)

Vanguard 2 Rocket - Visible Passes

Search period start: 23 August 2019 00:00
Search period end: 02 September 2019 00:00
Orbit: 553 x 3327 km, 32.9° (Epoch: 22 August)

Date Brightness Start Highest point End Pass type
(mag) Time Alt. Az. Time Alt. Az. Time Alt. Az.
23 Aug 10.0 00:57:17 17° NW 01:02:42 22° N 01:14:50 10° NE visible
23 Aug 10.7 03:13:00 10° NW 03:25:52 23° N 03:40:16 10° ENE visible
24 Aug 9.9 00:00:59 23° N 00:00:59 23° N 00:11:34 10° NE visible
24 Aug 10.5 02:11:38 10° NW 02:22:12 20° N 02:35:04 10° NE visible
24 Aug 10.2 23:04:41 18° NNE 23:04:41 18° NNE 23:09:06 10° NE visible
25 Aug 10.2 01:10:28 10° NW 01:18:58 18° N 01:29:56 10° NE visible
26 Aug 10.1 00:14:11 17° NNW 00:16:24 18° N 00:25:38 10° NNE visible
26 Aug 10.5 02:27:06 10° NNW 02:38:36 22° NNE 02:52:22 10° ENE visible
26 Aug 10.2 23:17:54 16° N 23:17:54 16° N 23:22:30 10° NNE visible
27 Aug 10.4 01:26:34 10° NNW 01:35:22 18° N 01:46:23 10° NE visible
28 Aug 10.2 00:27:26 12° NNW 00:32:36 15° N 00:40:39 10° NE visible
28 Aug 10.6 02:41:43 10° NNW 02:54:36 26° NNE 03:09:59 10° ENE visible
28 Aug 10.3 23:31:13 14° N 23:31:13 14° N 23:36:08 10° NNE visible
29 Aug 10.4 01:41:42 10° NNW 01:51:34 20° NNE 02:03:58 10° ENE visible
30 Aug 10.3 00:42:03 10° NNW 00:48:50 15° NNE 00:57:17 10° NE visible
30 Aug 10.5 02:55:46 10° NNW 03:10:02 33° NNE 03:27:10 10° E visible
30 Aug 10.3 23:44:40 11° N 23:46:33 12° N 23:50:46 10° NNE visible
31 Aug 10.4 01:55:59 10° NNW 02:07:19 25° NNE 02:21:49 10° ENE visible
01 Sep 10.3 00:56:44 10° NNW 01:04:50 18° NNE 01:15:12 10° ENE visible
01 Sep 10.5 03:09:35 10° NW 03:24:55 43° NNE 03:43:35 10° E visible
01 Sep 7.8 17:11:05 10° SSW 17:12:40 19° S 17:12:40 19° S visible
